Location: Colle Santa Colomba
(42.0333°N, 12.5667°E)
Time: 03:10:32
(UTC+00:00)

Cosmos 2227 - Pass Details

Date: 25 October 2021
Orbit: 833 x 863 km, 71.0° (Epoch: 28 November)

Event Time Altitude Azimuth Distance (km) Brightness Sun altitude
Rises 16:47:49 0° 335° (NNW) 3,450 7.6 -7.1°
Reaches altitude 10° 16:50:17 10° 336° (NNW) 2,510 6.9 -7.6°
Maximum altitude 16:56:05 90° 79° (ENE) 867 4.3 -8.7°
Drops below altitude 10° 17:01:49 10° 158° (SSE) 2,485 6.5 -9.7°
Sets 17:04:15 0° 158° (SSE) 3,414 7.2 -10.2°
